Weather History for KABQ - July, 2013

Change the Weather History Date:

Sunday, July 7, 2013

  Actual Average Record
Temperature  
Mean Temperature 81 °F 79 °F  
Max Temperature 94 °F 91 °F 102 °F (1973)
Min Temperature 67 °F 66 °F 45 °F (1915)
Degree Days  
Heating Degree Days 0 0  
Month to date heating degree days 0 0  
Since 1 June heating degree days 0 4  
Since 1 July heating degree days 0 0  
Cooling Degree Days 16 14  
Month to date cooling degree days 90 94  
Year to date cooling degree days 662 494  
Since 1 June cooling degree days 545 396  
Growing Degree Days 30 (Base 50)    
Moisture  
Dew Point 54 °F    
Average Humidity 47    
Maximum Humidity 73    
Minimum Humidity 20    
Precipitation  
Precipitation T in 0.04 in 1.82 in (2015)
Month to date precipitation 0.55 0.26  
Year to date precipitation 1.25 3.46  
Snow  
Snow 0.00 in - - ()
Month to date snowfall 0.0  
Since 1 June snowfall 0.0  
Since 1 July snowfall 0.0  
Snow Depth 0.00 in    
Sea Level Pressure  
Sea Level Pressure 29.84 in    
Wind  
Wind Speed 7 mph (North)    
Max Wind Speed 20 mph    
Max Gust Speed 23 mph    
Visibility 10 miles    
Events Rain    
T = Trace of Precipitation, MM = Missing Value Source: NWS Daily Summary

Daily Weather History Graph

Daily Weather History Graph

Search for Another Location

Airport or City:

Trip Planner

Search our weather history database for the weather conditions in past years. The results will help you decide how hot, cold, wet, or windy it might be!

Date:

Astronomy

Jul. 07, 2013 Rise Set
Actual Time 5:59 AM MDT 8:23 PM MDT
Civil Twilight 5:29 AM MDT 8:52 PM MDT
Nautical Twilight 4:53 AM MDT 9:29 PM MDT
Astronomical Twilight 4:13 AM MDT 10:08 PM MDT
Moon 5:35 AM MDT (7/7) 7:52 PM MDT (7/7)
Length of Visible Light 15h 23m
Length of Day
14h 24m
Waning Crescent, 0% of the Moon is Illuminated
Jul 7
Waning Crescent
Jul 8
New
Jul 15
First Quarter
Jul 22
Full
Jul 29
Last Quarter

Hourly Weather History & Observations

Time (MDT) Temp. Heat Index Dew Point Humidity Pressure Visibility Wind Dir Wind Speed Gust Speed Precip Events Conditions
12:52 AM 69.1 °F - 59.0 °F 70% 29.87 in 9.0 mi North 13.8 mph - 0.04 in Rain Light Rain
1:52 AM 71.1 °F - 57.0 °F 61% 29.83 in 10.0 mi NE 8.1 mph - 0.00 in   Overcast
2:52 AM 68.0 °F - 57.9 °F 70% 29.83 in 10.0 mi NNW 10.4 mph - N/A   Overcast
3:52 AM 68.0 °F - 59.0 °F 73% 29.82 in 10.0 mi North 9.2 mph - N/A   Overcast
4:52 AM 68.0 °F - 59.0 °F 73% 29.82 in 10.0 mi NE 10.4 mph - N/A   Mostly Cloudy
5:52 AM 68.0 °F - 59.0 °F 73% 29.83 in 10.0 mi NW 5.8 mph - N/A   Mostly Cloudy
6:52 AM 68.0 °F - 59.0 °F 73% 29.86 in 10.0 mi NW 5.8 mph - N/A   Mostly Cloudy
7:52 AM 69.1 °F - 59.0 °F 70% 29.88 in 10.0 mi WNW 4.6 mph - N/A   Mostly Cloudy
8:52 AM 73.0 °F - 57.9 °F 59% 29.89 in 10.0 mi North 3.5 mph - N/A   Scattered Clouds
9:52 AM 75.9 °F - 57.0 °F 52% 29.89 in 10.0 mi NNW 3.5 mph - N/A   Scattered Clouds
10:52 AM 80.1 °F 80.1 °F 55.0 °F 42% 29.88 in 10.0 mi WNW 4.6 mph - N/A   Scattered Clouds
11:52 AM 82.9 °F 81.9 °F 54.0 °F 37% 29.88 in 10.0 mi Variable 3.5 mph - N/A   Scattered Clouds
12:52 PM 86.0 °F - 51.1 °F 30% 29.86 in 10.0 mi Calm Calm - N/A   Scattered Clouds
1:52 PM 89.1 °F - 46.0 °F 22% 29.81 in 10.0 mi SW 3.5 mph - N/A   Scattered Clouds
2:52 PM 90.0 °F - 46.0 °F 22% 29.79 in 10.0 mi Variable 5.8 mph - N/A   Scattered Clouds
3:52 PM 91.0 °F - 48.0 °F 23% 29.77 in 10.0 mi Variable 3.5 mph - N/A   Scattered Clouds
4:52 PM 91.9 °F - 45.0 °F 20% 29.76 in 10.0 mi Calm Calm - N/A   Mostly Cloudy
5:52 PM 93.0 °F - 48.0 °F 21% 29.74 in 10.0 mi ESE 10.4 mph - N/A   Mostly Cloudy
6:52 PM 90.0 °F - 51.1 °F 26% 29.76 in 10.0 mi SE 17.3 mph - N/A   Mostly Cloudy
7:52 PM 87.1 °F - 52.0 °F 30% 29.78 in 10.0 mi SE 13.8 mph - N/A   Overcast
8:52 PM 86.0 °F - 52.0 °F 31% 29.81 in 10.0 mi SE 8.1 mph - N/A   Overcast
9:12 PM 82.4 °F - 51.8 °F 35% 30.10 in 10.0 mi WSW 11.5 mph - N/A   Overcast
9:52 PM 82.0 °F - 51.1 °F 34% 29.84 in 10.0 mi SW 6.9 mph - N/A   Overcast
10:52 PM 82.0 °F - 52.0 °F 35% 29.84 in 10.0 mi ESE 9.2 mph - N/A   Overcast
11:52 PM 82.0 °F 81.2 °F 53.1 °F 37% 29.83 in 10.0 mi East 9.2 mph - N/A   Overcast